Track FAST 1 (USA 222) now! 10-day predictions FAST 1 (USA 222) is classified as:
1 37227U 10062F 25183.42557407 .00000603 00000-0 78888-4 0 9995 2 37227 71.9651 197.2782 0013260 47.2625 312.9654 14.84285502313956